Location: Sawyer Lake
(45.2517°N, 88.7550°W)
Time: 00:58:41
(UTC-05:00)

Daily predictions for brighter satellites

Satellite Brightness Start Highest point End
(mag) Time Altitude Azimuth Time Altitude Azimuth Time Altitude Azimuth
Lacrosse 5 1.9 00:04:10 44° WSW 00:05:47 77° NW 00:10:55 10° NE
Cosmos 44 Rocket 4.4 00:05:07 10° NNW 00:10:00 41° NE 00:11:24 33° E
Iridium 4 Rocket 4.4 00:07:41 10° NNW 00:13:21 50° W 00:14:58 39° SW
Cosmos 1892 Rocket 4.2 00:14:46 10° NNW 00:18:47 48° W 00:18:47 48° W
Cosmos 2100 Rocket 4.4 00:18:56 45° ESE 00:19:58 49° E 00:26:04 10° NNE
Cosmos 2084 Rocket 4.3 00:17:18 10° NW 00:19:58 40° WNW 00:19:58 40° WNW
Meteor 2-4 Rocket 4.4 00:24:17 10° NNW 00:29:22 40° W 00:30:11 38° WSW
CZ-4B R/B 3.3 00:30:56 28° N 00:30:56 28° N 00:32:35 10° N
Cosmos 1459 Rocket 4.1 00:32:34 52° ESE 00:33:23 57° E 00:39:18 10° NNE
Cosmos 1315 Rocket 4.1 00:34:55 34° WNW 00:34:55 34° WNW 00:38:17 10° N
Cosmos 2263 4.2 00:35:30 62° SW 00:36:24 78° WNW 00:42:06 10° NNE
Cosmos 2016 Rocket 4.5 00:36:18 41° ESE 00:37:08 43° E 00:42:51 10° NNE
NOSS 3-1 (A) 4.5 00:31:16 10° NW 00:38:26 45° WSW 00:40:02 41° SW
Cosmos 2061 Rocket 4.1 00:37:38 54° SE 00:38:43 62° E 00:45:02 10° NNE
Cosmos 1602 Rocket 3.7 00:34:22 10° N 00:38:23 71° NNW 00:38:23 71° NNW
Lacrosse 5 rocket 2.9 00:38:52 26° WNW 00:39:56 30° NNW 00:43:16 10° NE
Cosmos 1605 Rocket 4.4 00:38:08 42° SW 00:39:58 56° WNW 00:46:18 10° N
Cosmos 968 Rocket 3.5 00:37:14 10° NNW 00:42:28 68° ENE 00:42:51 66° E
Cosmos 1626 Rocket 3.8 00:38:40 10° NNW 00:42:41 67° NW 00:42:41 67° NW
Cosmos 1802 Rocket 4.0 00:46:47 56° SE 00:47:42 63° E 00:53:55 10° NNE
Cosmos 1455 Rocket 3.9 00:47:53 42° WNW 00:47:53 42° WNW 00:51:54 10° N
Meteor 1-12 Rocket 4.1 00:47:57 73° SSW 00:48:32 87° WNW 00:54:13 10° N
BREEZE-M DEB (TANK) 3.9 00:37:17 10° WNW 00:50:53 64° N 00:54:02 17° E
ALOS 2 3.4 00:52:11 42° WNW 00:52:11 42° WNW 00:55:48 10° NNW
Cosmos 1346 Rocket 4.0 00:49:44 10° NNW 00:52:25 36° NW 00:52:25 36° NW
Cosmos 2173 Rocket 3.9 00:54:25 63° SSE 00:55:29 81° E 01:01:53 10° N
CZ-2C R/B 3.3 00:56:01 51° E 00:56:26 53° ENE 01:01:09 10° N
Cosmos 1833 4.1 00:51:20 10° NNW 00:56:55 66° WSW 00:57:05 65° WSW
ATLAS 2AS CENTAUR R/B 2.9 00:51:50 10° NW 00:59:58 76° WSW 01:02:08 52° SSE
USA 234 4.0 01:01:59 10° NE 01:08:17 51° NNW 01:14:33 10° W
Helios 1A Rocket 3.4 01:04:29 10° NNE 01:07:56 60° N 01:07:56 60° N
Cosmos 2369 Rocket 3.5 01:08:35 22° W 01:11:13 33° NW 01:16:17 10° N
Meteor 1-21 4.4 01:06:44 10° N 01:12:18 60° ENE 01:13:12 53° ESE
ISS -0.7 01:09:34 10° NW 01:10:47 18° NW 01:10:47 18° NW
Cosmos 1725 Rocket 4.2 01:13:06 50° SE 01:14:09 56° E 01:20:11 10° NNE
CZ-2C R/B 2.4 01:09:05 10° NNE 01:14:21 87° ESE 01:14:39 80° S
Cosmos 1340 4.2 01:11:03 10° N 01:13:58 30° NE 01:13:58 30° NE
Cosmos 1743 3.8 01:16:08 43° NE 01:16:08 43° NE 01:18:56 10° NNE
Cosmos 1818 4.0 01:15:53 45° W 01:17:11 57° NW 01:22:37 10° NNE
Cosmos 2219 3.0 01:17:15 10° NNW 01:22:54 78° WSW 01:23:14 75° SSW
Cosmos 1606 Rocket 3.9 01:24:10 58° NE 01:24:10 58° NE 01:27:53 10° NNE
Cosmos 2227 Rocket 3.5 01:18:52 10° NNW 01:24:02 35° NE 01:27:28 19° ESE
Cosmos 1066 Rocket 4.2 01:20:03 10° NNW 01:25:20 61° W 01:25:30 61° WSW
Cosmos 1975 4.3 01:27:33 31° WNW 01:27:33 31° WNW 01:30:44 10° N
Tsikada Rocket 4.0 01:20:51 10° N 01:27:11 76° E 01:28:37 56° SSE
Cosmos 2098 Rocket 4.4 01:27:03 52° SSE 01:28:54 73° E 01:36:32 10° NNE
Cosmos 1777 Rocket 3.8 01:23:41 10° NNW 01:28:55 81° WSW 01:28:59 81° WSW
Cosmos 1656 Rocket 3.5 01:30:55 74° SSW 01:31:28 86° ESE 01:37:08 10° NNE
H-2A R/B 4.1 01:29:57 10° N 01:33:47 27° WNW 01:34:17 27° WNW
Cosmos 1842 4.0 01:31:55 10° N 01:35:15 51° NE 01:35:15 51° NE
Cosmos 2208 Rocket 4.2 01:37:28 56° ESE 01:37:37 56° ESE 01:42:46 10° NNE
GP-B 4.3 01:35:37 10° NNW 01:39:19 32° WNW 01:39:19 32° WNW
Cosmos 1666 3.7 01:40:43 42° NE 01:40:43 42° NE 01:43:32 10° NNE
Cosmos 1943 Rocket 3.1 01:41:11 33° W 01:42:49 41° NW 01:48:08 10° NNE
Cosmos 2297 Rocket 3.5 01:40:00 10° NNW 01:45:12 36° NE 01:49:22 15° ESE
Cosmos 2058 Rocket 3.2 01:47:02 71° ENE 01:47:02 71° ENE 01:51:13 10° NNE
Lacrosse 5 3.8 01:45:05 10° WNW 01:49:27 27° NNW 01:53:48 10° NE
Cosmos 1953 Rocket 4.0 01:46:09 10° NNW 01:49:47 52° WNW 01:49:47 52° WNW
ATLAS CENTAUR R/B 3.5 01:53:11 21° ESE 01:53:11 21° ESE 01:56:49 10° ENE
PSLV R/B 4.2 01:49:52 10° NNE 01:54:12 47° E 01:54:16 47° ESE
SeaSat 1 2.5 01:58:00 57° SE 01:58:58 76° ENE 02:03:55 10° NNW
Cosmos 1726 Rocket 3.8 01:59:37 59° NW 01:59:37 59° NW 02:03:35 10° N
Cosmos 405 Rocket 4.4 01:58:26 10° N 02:01:59 28° ENE 02:02:53 25° E
Cosmos 1758 Rocket 4.4 02:09:53 10° NNW 02:13:36 38° WNW 02:13:36 38° WNW
ERS-2 4.5 02:13:36 10° NE 02:15:53 15° E 02:16:22 15° ESE
Cosmos 2233 Rocket 3.9 02:16:29 53° SSW 02:18:01 78° W 02:24:12 10° N
Meteor 2-17 Rocket 4.4 02:18:31 52° SSW 02:20:05 80° W 02:26:14 10° N
Lacrosse 5 rocket 4.1 02:18:07 10° NW 02:20:08 14° N 02:22:08 10° NNE
JB-3 4.4 02:16:57 10° NNE 02:21:02 78° E 02:21:02 78° E
Cosmos 44 4.2 02:17:45 10° NW 02:21:30 35° W 02:21:30 35° W
NOSS 3-4 (A) 4.1 02:16:11 10° NW 02:23:04 67° NE 02:30:22 10° SE
NOSS 3-4 (C) 4.1 02:16:17 10° NW 02:23:12 67° NE 02:30:32 10° SE
Cosmos 2150 Rocket 4.2 02:18:22 10° NNW 02:23:37 68° ENE 02:25:35 37° SE
BREEZE-M DEB (TANK) 4.5 02:22:08 10° WNW 02:27:01 49° SSW 02:46:27 10° SE
Cosmos 1898 Rocket 3.6 02:23:17 10° NNW 02:28:40 77° ENE 02:30:42 39° SSE
NOSS 3-3 (C) 4.5 02:28:52 32° WSW 02:31:45 56° NW 02:38:30 10° NNE
Cosmos 220 Rocket 3.9 02:28:56 10° NNW 02:33:19 85° ENE 02:33:43 72° SE
CZ-2D R/B 4.4 02:30:14 10° NE 02:33:50 18° E 02:37:23 10° SE
Cosmos 1937 Rocket 3.7 02:33:13 10° NNW 02:38:23 67° ENE 02:41:09 28° SE
SL-08 R/B 3.3 02:39:16 48° SSE 02:40:33 80° ENE 02:45:13 10° N
Cosmos 2228 3.7 02:42:11 40° W 02:42:18 40° WNW 02:46:22 10° N
Cosmos 1707 3.0 02:39:36 10° N 02:43:32 63° E 02:44:08 54° SE
ATLAS 2AS CENTAUR R/B 4.4 02:44:56 10° WNW 02:49:31 17° WSW 02:49:31 17° WSW
IRS-P3 4.0 02:45:01 10° NNE 02:50:25 87° WNW 02:52:06 46° SSW
Cosmos 1697 Rocket 3.4 02:53:04 29° SSE 02:55:24 45° ESE 03:00:46 10° NE
ARIANE 5 R/B 3.8 02:52:01 10° NNE 02:56:41 34° E 02:59:43 19° SSE
USA 161 3.0 02:58:24 30° E 02:58:48 31° ENE 03:01:20 10° N
Cosmos 2082 3.9 02:53:22 10° NW 02:58:49 51° WSW 03:00:08 42° SSW
Cosmos 1891 Rocket 4.4 03:01:20 35° S 03:04:07 87° ESE 03:10:18 10° N
Cosmos 1980 Rocket 3.5 03:01:23 19° SSE 03:04:27 32° ESE 03:09:26 10° NE
ADEOS 3.8 03:01:27 10° NNE 03:06:40 65° ESE 03:09:06 31° S
Okean O Rocket 4.4 03:06:57 10° ENE 03:07:57 11° E 03:08:58 10° ESE
Cosmos 2227 Rocket 2.6 03:02:53 10° NW 03:08:10 41° WSW 03:09:13 37° SW
BREEZE-M R/B 4.2 03:02:00 10° WNW 03:08:39 53° SW 03:14:44 10° SE
Resurs 1-4 Rocket 3.4 03:05:13 10° NNE 03:10:01 35° E 03:13:45 15° SSE
BREEZE-M DEB (TANK) 4.1 03:13:42 25° S 03:15:02 29° SE 03:18:36 10° ENE
Cosmos 1408 Rocket 4.1 03:10:55 10° N 03:15:15 56° E 03:18:17 19° SSE
Abrixas 3.2 03:17:06 43° ESE 03:17:06 43° ESE 03:19:17 10° ESE
Spot 4 Rocket 4.2 03:12:07 10° NNE 03:17:18 72° ESE 03:19:57 29° S
Cosmos 2322 Rocket 4.5 03:13:57 10° SE 03:17:19 16° E 03:20:42 10° ENE
Cosmos 1766 Rocket 4.1 03:15:26 10° N 03:19:48 58° ENE 03:23:05 17° SSE
Cosmos 2034 Rocket 3.9 03:16:45 31° SSW 03:19:52 75° W 03:26:05 10° N
Cosmos 1812 Rocket 4.4 03:20:36 32° WSW 03:21:35 36° WNW 03:25:44 10° N
Cosmos 1814 Rocket 4.1 03:19:58 35° SW 03:22:11 70° WNW 03:27:34 10° NNE
CBERS-1 4.2 03:18:00 10° N 03:23:04 62° WNW 03:25:13 34° SW
Nadezhda 4 Rocket 3.9 03:17:56 10° N 03:24:10 87° W 03:28:54 18° S
RESURS DK-1 4.4 03:21:13 10° N 03:24:52 29° NE 03:28:30 10° ESE
NPP 4.0 03:20:09 10° N 03:25:23 52° WNW 03:27:45 30° SW
IRS-1D 3.9 03:22:04 10° NNE 03:26:58 57° E 03:30:10 21° S
Meteor 2-5 Rocket 4.3 03:21:29 10° NNW 03:27:01 44° W 03:29:26 30° SW
Cosmos 2297 Rocket 2.7 03:24:04 10° NW 03:29:16 38° WSW 03:31:06 30° SW
Cosmos 2278 4.5 03:27:34 25° WSW 03:30:21 40° NW 03:35:43 10° NNE
ATLAS CENTAUR R/B 2.1 03:29:31 31° WSW 03:31:49 62° NW 03:36:46 10° NNE
Cosmos 2369 4.4 03:29:36 25° WSW 03:32:24 43° WNW 03:37:49 10° NNE
NOSS 7 (E) 4.3 03:32:51 49° SW 03:33:42 88° SE 03:37:12 10° NE
Lacrosse 5 4.3 03:29:52 10° NW 03:33:50 22° N 03:37:47 10° ENE
SL-16 R/B 2.5 03:28:08 10° SSE 03:34:19 87° ENE 03:40:31 10° NNW
SAR-Lupe-3 4.3 03:33:14 40° S 03:34:23 74° WSW 03:37:53 10° NNW
Cosmos 1378 3.0 03:32:22 10° NNW 03:36:09 77° W 03:37:47 32° S
SeaSat 1 4.2 03:37:47 15° W 03:37:47 15° W 03:39:58 10° WNW
Cosmos 405 Rocket 4.1 03:34:40 10° NW 03:37:57 24° W 03:38:05 24° W
Cosmos 990 Rocket 4.2 03:35:31 10° NNW 03:40:35 50° WSW 03:43:41 22° S
NOSS 2-1 (D) 4.4 03:42:49 23° W 03:44:53 40° NW 03:49:21 10° NNE
NOSS 2-1 (C) 4.4 03:44:12 23° W 03:46:17 40° NW 03:50:46 10° NNE
Cosmos 1461 3.4 03:42:30 10° NNW 03:46:39 59° NE 03:50:36 10° SE
ERS-2 2.8 03:46:20 10° N 03:49:51 40° WNW 03:51:12 29° WSW
GPS 2-04 Rocket1 4.2 03:50:41 20° S 03:50:41 20° S 03:53:05 10° SE
SL-16 R/B 3.8 03:46:21 10° SSE 03:51:09 29° ESE 03:55:58 10° NE
Cosmos 1766 3.5 03:49:53 30° SW 03:51:32 54° W 03:55:26 10° N
Cosmos 2026 Rocket 4.3 03:48:37 10° N 03:54:59 69° E 04:01:12 10° SSE
Cosmos 372 Rocket 4.4 03:54:48 10° NNW 03:59:53 64° ENE 04:04:56 10° SSE
Cosmos 2263 Rocket 4.1 03:55:34 10° N 04:00:35 33° NE 04:05:34 10° ESE
Lacrosse 5 rocket 4.0 03:58:08 10° NNW 04:00:36 17° NNE 04:03:05 10° ENE
EP 1 4.2 04:00:10 42° WSW 04:00:51 69° NW 04:03:35 10° NE
Cosmos 332 Rocket 4.5 04:00:31 12° S 04:04:46 51° ESE 04:09:28 10° NNE
Meteor 1-24 Rocket 4.4 03:59:40 10° NNW 04:04:52 36° W 04:08:39 18° SSW
UNKNOWN OBJECT B 2.9 04:01:02 10° NNE 04:04:57 75° ESE 04:07:58 16° S
Cosmos 1634 Rocket 4.0 03:59:33 13° S 04:05:09 86° W 04:11:31 10° N
Cosmos 2195 Rocket 4.4 04:00:06 10° N 04:06:15 88° W 04:12:22 10° S
Cosmos 1656 4.5 04:05:09 18° WSW 04:08:56 40° NW 04:14:15 10° NNE
Cosmos 1437 2.7 04:06:49 10° NNW 04:10:10 74° W 04:13:17 11° S
CZ-4B R/B 4.4 04:05:46 10° NNE 04:10:59 41° E 04:16:04 10° SSE
Cosmos 1441 Rocket 4.1 04:07:51 10° NNW 04:11:28 33° W 04:13:33 20° SW
MTI 3.7 04:10:03 10° S 04:13:16 75° WSW 04:16:35 10° NNW
CZ-2D R/B 2.2 04:08:59 10° N 04:14:26 69° WNW 04:19:04 14° SSW
Cosmos 1092 Rocket 4.3 04:09:07 10° NNW 04:15:08 49° W 04:21:11 10° SSW
Milstar 3 Cent rocket 3.9 04:13:35 14° SSW 04:15:44 16° S 04:20:02 10° SE
Cosmos 1076 Rocket 4.4 04:12:07 10° NNW 04:15:53 30° W 04:18:17 18° SW
Cosmos 841 Rocket 4.0 04:13:08 18° SW 04:16:48 47° WNW 04:21:55 10° N
Cosmos 1125 Rocket 3.6 04:11:43 10° NNW 04:16:50 57° WSW 04:21:53 10° S
EO 1 Del DPAF 3.7 04:15:01 14° SSW 04:18:01 43° W 04:21:45 10° NNW
Cosmos 1733 4.4 04:16:49 10° SSE 04:20:22 40° E 04:23:58 10° NNE
Cosmos 1805 3.4 04:17:45 17° SSW 04:20:39 58° W 04:24:32 10° N
Cosmos 2227 4.3 04:15:07 10° NNW 04:20:46 56° WSW 04:26:21 10° S
Cosmos 1763 Rocket 4.3 04:18:14 16° WSW 04:21:53 38° WNW 04:26:43 10° N
Cosmos 1758 3.6 04:19:49 17° SSW 04:22:45 51° WNW 04:26:41 10° N
BREEZE-M DEB (TANK) 3.9 04:20:24 10° W 04:23:50 48° N 04:28:25 10° ENE
UNK 4.4 04:20:13 13° SSW 04:23:54 36° W 04:28:14 10° NNW
Cosmos 371 Rocket 4.0 04:19:19 10° S 04:23:58 53° ESE 04:28:39 10° NNE
Cosmos 1544 3.0 04:21:57 12° S 04:25:21 85° W 04:29:01 10° N
UNK 3.0 04:22:16 10° WNW 04:25:33 43° N 04:27:33 10° E
Cosmos 1953 2.8 04:23:35 16° SW 04:26:33 45° WNW 04:30:30 10° N
Cosmos 1500 Rocket 3.5 04:22:26 10° NNW 04:26:52 76° W 04:31:12 10° S
USA 161 3.9 04:29:33 10° W 04:29:33 10° W 04:29:45 10° W
Cosmos 1743 Rocket 3.9 04:28:10 10° NNW 04:32:19 45° W 04:36:28 10° SSW
GEOS 3 Rocket 4.0 04:30:13 10° SSE 04:35:09 42° WSW 04:40:03 10° NW
ARIANE 5 R/B 3.4 04:31:11 10° N 04:35:46 34° WNW 04:40:03 12° SW
Cosmos 1428 Rocket 4.5 04:33:07 10° N 04:39:17 86° W 04:45:24 10° S
Cosmos 1697 Rocket 3.8 04:34:48 11° WSW 04:39:31 32° NW 04:44:35 10° N
CZ-3 R/B 4.2 04:16:58 13° SW 04:39:31 33° S 04:47:38 10° ESE
CZ-2C R/B 3.7 04:35:12 10° S 04:39:52 70° WSW 04:44:28 10° NNW
Okean O Rocket 1.6 04:40:29 10° N 04:44:53 80° WNW 04:49:18 10° SSW
Cosmos 540 Rocket 3.6 04:40:50 10° SSW 04:45:58 65° WNW 04:51:08 10° NNE
Cosmos-2242 4.1 04:43:21 11° SW 04:46:51 29° WNW 04:50:38 10° NNW
Cosmos 2221 3.4 04:43:45 10° SSE 04:47:52 49° E 04:52:03 10° NNE
Cosmos 1980 Rocket 2.9 04:43:10 11° SW 04:48:19 42° NW 04:53:42 10° NNE
Cosmos 1674 2.8 04:44:51 10° NNW 04:48:32 52° W 04:52:10 10° S
Cosmos 2360 Rocket 3.7 04:43:57 10° SSE 04:48:55 33° ESE 04:53:56 10° NE
Resurs 1-4 Rocket 3.0 04:45:07 10° N 04:49:49 34° WNW 04:54:30 10° SW
Abrixas 4.2 04:49:53 10° W 04:51:52 16° SW 04:53:51 10° S
CZ-4B DEB 4.3 04:48:18 10° NNE 04:53:53 84° ESE 04:59:24 10° SSW
Cosmos 2058 3.3 04:52:28 10° N 04:56:43 70° E 05:00:54 10° SSE
Cosmos 2279 Rocket 4.2 04:51:58 10° SSW 04:58:07 59° WNW 05:04:19 10° N
GRACE-1 3.9 04:57:11 10° S 05:00:03 90° S 05:02:57 10° N
GRACE-2 3.9 04:57:37 10° S 05:00:29 90° W 05:03:24 10° N
Cosmos 2322 Rocket 2.2 04:55:03 10° SSW 05:00:39 77° WNW 05:06:18 10° NNE
Cosmos 2084 4.1 04:57:24 10° NNW 05:01:25 60° NE 05:05:38 10° SE
RESURS DK-1 3.2 04:59:19 10° NW 05:02:54 29° WSW 05:06:28 10° SSW
Thor Agena Rocket 3.6 05:01:04 10° S 05:06:01 60° WSW 05:11:03 10° NNW
Aureole 1 Rocket 4.4 05:01:35 10° SW 05:07:44 64° WNW 05:15:37 10° NNE
